Time,TemperatureF,DewpointF,PressureIn,WindDirection,WindDirectionDegrees,WindSpeedMPH,WindSpeedGustMPH,Humidity,HourlyPrecipIn,Conditions,Clouds,dailyrainin,SoftwareType,DateUTC
2014-01-07 00:01:00,-4.7,-8.3,30.14,ENE,73,8.9,12.1,84,0.00,,,0.00,meteobridge,2014-01-07 05:01:00,
2014-01-07 00:02:00,-4.7,-8.3,30.14,ENE,66,2.0,12.1,84,0.00,,,0.00,meteobridge,2014-01-07 05:02:00,
2014-01-07 00:07:00,-4.5,-8.1,30.15,NE,54,8.9,8.9,84,0.00,,,0.00,meteobridge,2014-01-07 05:07:00,
2014-01-07 00:12:00,-4.5,-8.1,30.15,NE,51,6.9,8.9,84,0.00,,,0.00,meteobridge,2014-01-07 05:12:00,
2014-01-07 00:17:00,-4.7,-8.3,30.15,ENE,60,10.1,12.1,84,0.00,,,0.00,meteobridge,2014-01-07 05:17:00,
2014-01-07 00:22:00,-4.4,-8.0,30.15,ENE,58,6.0,10.1,84,0.00,,,0.00,meteobridge,2014-01-07 05:22:00,
2014-01-07 00:27:00,-4.7,-8.5,30.15,ENE,64,4.9,10.1,83,0.00,,,0.00,meteobridge,2014-01-07 05:27:00,
2014-01-07 00:32:00,-4.2,-7.6,30.15,ENE,73,4.9,8.1,85,0.00,,,0.00,meteobridge,2014-01-07 05:32:00,
2014-01-07 00:37:00,-4.5,-8.3,30.14,ENE,60,8.9,8.9,83,0.00,,,0.00,meteobridge,2014-01-07 05:37:00,
2014-01-07 00:42:00,-4.7,-8.5,30.14,East,80,4.0,8.9,83,0.00,,,0.00,meteobridge,2014-01-07 05:42:00,
2014-01-07 00:47:00,-4.7,-8.3,30.15,ENE,77,2.9,8.1,84,0.00,,,0.00,meteobridge,2014-01-07 05:47:00,
2014-01-07 00:52:00,-4.7,-8.3,30.15,NE,44,6.0,8.9,84,0.00,,,0.00,meteobridge,2014-01-07 05:52:00,
2014-01-07 00:57:00,-4.5,-8.1,30.15,NE,56,6.0,8.1,84,0.00,,,0.00,meteobridge,2014-01-07 05:57:00,
2014-01-07 01:02:00,-3.8,-7.2,30.15,ENE,62,8.1,10.1,85,0.00,,,0.00,meteobridge,2014-01-07 06:02:00,
2014-01-07 01:08:00,-3.8,-7.4,30.15,NE,55,2.9,6.9,84,0.00,,,0.00,meteobridge,2014-01-07 06:08:00,
2014-01-07 01:12:00,-4.2,-7.8,30.15,NE,56,2.9,8.9,84,0.00,,,0.00,meteobridge,2014-01-07 06:12:00,
2014-01-07 01:18:00,-4.4,-8.0,30.15,ENE,58,6.9,10.1,84,0.00,,,0.00,meteobridge,2014-01-07 06:18:00,
2014-01-07 01:23:00,-3.6,-7.1,30.15,NE,46,6.0,6.9,85,0.00,,,0.00,meteobridge,2014-01-07 06:23:00,
2014-01-07 01:28:00,-4.4,-8.0,30.14,NE,45,6.0,10.1,84,0.00,,,0.00,meteobridge,2014-01-07 06:28:00,
2014-01-07 01:33:00,-5.1,-8.9,30.14,NE,49,6.0,8.9,83,0.00,,,0.00,meteobridge,2014-01-07 06:33:00,
2014-01-07 01:38:00,-5.1,-8.7,30.15,ENE,62,8.9,8.9,84,0.00,,,0.00,meteobridge,2014-01-07 06:38:00,
2014-01-07 01:43:00,-4.4,-8.0,30.15,NE,50,6.0,6.9,84,0.00,,,0.00,meteobridge,2014-01-07 06:43:00,
2014-01-07 01:48:00,-4.4,-8.0,30.15,NE,48,6.0,8.9,84,0.00,,,0.00,meteobridge,2014-01-07 06:48:00,
2014-01-07 01:53:00,-4.4,-8.0,30.14,NE,48,4.9,6.9,84,0.00,,,0.00,meteobridge,2014-01-07 06:53:00,
2014-01-07 01:58:00,-4.4,-7.8,30.15,NE,48,6.9,8.9,85,0.00,,,0.00,meteobridge,2014-01-07 06:58:00,
2014-01-07 02:03:00,-4.5,-8.1,30.15,NE,48,4.9,8.9,84,0.00,,,0.00,meteobridge,2014-01-07 07:03:00,
2014-01-07 02:08:00,-4.5,-8.1,30.16,NE,48,4.0,6.0,84,0.00,,,0.00,meteobridge,2014-01-07 07:08:00,
2014-01-07 02:13:00,-4.2,-7.8,30.15,NE,48,6.0,6.9,84,0.00,,,0.00,meteobridge,2014-01-07 07:13:00,
2014-01-07 02:15:00,-4.2,-7.6,30.16,NE,48,4.9,6.0,85,0.00,,,0.00,meteobridge,2014-01-07 07:15:00,
2014-01-07 02:20:00,-4.5,-8.1,30.16,NE,48,6.9,6.9,84,0.00,,,0.00,meteobridge,2014-01-07 07:20:00,
2014-01-07 02:25:00,-4.5,-8.1,30.17,NE,48,4.9,6.9,84,0.00,,,0.00,meteobridge,2014-01-07 07:25:00,
2014-01-07 02:30:00,-3.6,-7.1,30.17,NE,48,6.9,8.9,85,0.00,,,0.00,meteobridge,2014-01-07 07:30:00,
2014-01-07 02:35:00,-3.6,-7.2,30.17,NE,48,6.9,6.9,84,0.00,,,0.00,meteobridge,2014-01-07 07:35:00,
2014-01-07 02:36:00,-3.6,-7.1,30.17,NE,48,6.0,6.9,85,0.00,,,0.00,meteobridge,2014-01-07 07:36:00,
2014-01-07 02:41:00,-3.8,-7.4,30.17,NE,48,4.9,8.9,84,0.00,,,0.00,meteobridge,2014-01-07 07:41:00,
2014-01-07 02:46:00,-3.8,-7.4,30.17,NE,48,8.9,8.9,84,0.00,,,0.00,meteobridge,2014-01-07 07:46:00,
2014-01-07 02:51:00,-3.8,-7.2,30.17,NE,48,2.9,10.1,85,0.00,,,0.00,meteobridge,2014-01-07 07:51:00,
2014-01-07 02:56:00,-3.6,-7.2,30.17,NE,48,4.9,8.9,84,0.00,,,0.00,meteobridge,2014-01-07 07:56:00,
2014-01-07 03:01:00,-4.4,-8.0,30.17,NE,48,4.9,8.9,84,0.00,,,0.00,meteobridge,2014-01-07 08:01:00,
2014-01-07 03:06:00,-4.2,-7.8,30.17,NE,48,4.9,6.9,84,0.00,,,0.00,meteobridge,2014-01-07 08:06:00,
2014-01-07 03:11:00,-4.4,-8.0,30.17,NE,48,6.0,6.9,84,0.00,,,0.00,meteobridge,2014-01-07 08:11:00,
2014-01-07 03:16:00,-4.5,-8.1,30.16,NE,48,6.9,8.9,84,0.00,,,0.00,meteobridge,2014-01-07 08:16:00,
2014-01-07 03:21:00,-4.4,-8.0,30.16,NE,48,4.9,6.9,84,0.00,,,0.00,meteobridge,2014-01-07 08:21:00,
2014-01-07 03:27:00,-4.5,-8.1,30.16,NE,48,4.9,6.0,84,0.00,,,0.00,meteobridge,2014-01-07 08:27:00,
2014-01-07 03:32:00,-4.4,-8.0,30.16,NE,48,4.0,6.0,84,0.00,,,0.00,meteobridge,2014-01-07 08:32:00,
2014-01-07 03:37:00,-4.4,-8.0,30.16,NE,48,4.9,6.0,84,0.00,,,0.00,meteobridge,2014-01-07 08:37:00,
2014-01-07 03:42:00,-4.5,-8.1,30.16,NE,48,4.9,6.0,84,0.00,,,0.00,meteobridge,2014-01-07 08:42:00,
2014-01-07 03:47:00,-4.4,-8.0,30.16,NE,48,4.9,8.9,84,0.00,,,0.00,meteobridge,2014-01-07 08:47:00,
2014-01-07 03:52:00,-4.5,-8.1,30.16,NE,48,4.9,4.9,84,0.00,,,0.00,meteobridge,2014-01-07 08:52:00,
2014-01-07 03:57:00,-3.6,-7.1,30.15,NE,48,4.0,4.9,85,0.00,,,0.00,meteobridge,2014-01-07 08:57:00,
2014-01-07 04:02:00,-3.5,-6.9,30.15,NE,48,4.0,4.9,85,0.00,,,0.00,meteobridge,2014-01-07 09:02:00,
2014-01-07 04:07:00,-4.2,-7.8,30.16,NE,48,4.0,6.0,84,0.00,,,0.00,meteobridge,2014-01-07 09:07:00,
2014-01-07 04:12:00,-4.4,-8.0,30.15,NE,48,6.0,6.0,84,0.00,,,0.00,meteobridge,2014-01-07 09:12:00,
2014-01-07 04:17:00,-4.2,-7.6,30.15,NE,48,2.9,6.0,85,0.00,,,0.00,meteobridge,2014-01-07 09:17:00,
2014-01-07 04:22:00,-4.7,-8.3,30.16,NE,48,4.0,4.9,84,0.00,,,0.00,meteobridge,2014-01-07 09:22:00,
2014-01-07 04:27:00,-4.7,-8.3,30.16,NE,48,4.9,6.0,84,0.00,,,0.00,meteobridge,2014-01-07 09:27:00,
2014-01-07 04:33:00,-4.7,-8.3,30.16,NE,48,2.9,4.9,84,0.00,,,0.00,meteobridge,2014-01-07 09:33:00,
2014-01-07 04:38:00,-4.7,-8.3,30.16,NE,48,4.0,4.9,84,0.00,,,0.00,meteobridge,2014-01-07 09:38:00,
2014-01-07 04:43:00,-4.7,-8.3,30.16,NE,48,4.9,6.9,84,0.00,,,0.00,meteobridge,2014-01-07 09:43:00,
2014-01-07 04:48:00,-4.5,-8.1,30.16,NE,48,4.0,6.9,84,0.00,,,0.00,meteobridge,2014-01-07 09:48:00,
2014-01-07 04:53:00,-4.4,-8.0,30.16,NE,48,4.9,6.0,84,0.00,,,0.00,meteobridge,2014-01-07 09:53:00,
2014-01-07 04:58:00,-4.5,-8.1,30.16,NE,48,4.0,4.9,84,0.00,,,0.00,meteobridge,2014-01-07 09:58:00,
2014-01-07 05:04:00,-4.5,-8.1,30.16,NE,48,2.9,4.9,84,0.00,,,0.00,meteobridge,2014-01-07 10:04:00,
2014-01-07 05:09:00,-4.7,-8.3,30.16,NE,48,2.9,4.9,84,0.00,,,0.00,meteobridge,2014-01-07 10:09:00,
2014-01-07 05:14:00,-5.1,-8.7,30.16,NE,48,4.0,4.0,84,0.00,,,0.00,meteobridge,2014-01-07 10:14:00,
2014-01-07 05:19:00,-5.1,-8.7,30.16,NE,48,2.0,4.9,84,0.00,,,0.00,meteobridge,2014-01-07 10:19:00,
2014-01-07 05:24:00,-5.3,-8.9,30.16,NE,48,2.9,4.9,84,0.00,,,0.00,meteobridge,2014-01-07 10:24:00,
2014-01-07 05:29:00,-5.3,-8.9,30.16,NE,48,4.9,6.0,84,0.00,,,0.00,meteobridge,2014-01-07 10:29:00,
2014-01-07 05:34:00,-5.3,-8.9,30.16,NE,48,2.9,4.0,84,0.00,,,0.00,meteobridge,2014-01-07 10:34:00,
2014-01-07 05:39:00,-5.3,-8.9,30.16,NE,48,4.0,4.9,84,0.00,,,0.00,meteobridge,2014-01-07 10:39:00,
2014-01-07 05:44:00,-5.6,-9.2,30.16,NE,48,2.0,6.0,84,0.00,,,0.00,meteobridge,2014-01-07 10:44:00,
2014-01-07 05:49:00,-5.8,-9.4,30.16,NE,48,2.9,4.0,84,0.00,,,0.00,meteobridge,2014-01-07 10:49:00,
2014-01-07 05:54:00,-5.8,-9.4,30.16,NE,47,2.9,4.0,84,0.00,,,0.00,meteobridge,2014-01-07 10:54:00,
2014-01-07 05:59:00,-5.8,-9.4,30.16,NE,48,2.0,4.0,84,0.00,,,0.00,meteobridge,2014-01-07 10:59:00,
2014-01-07 06:05:00,-5.8,-9.4,30.16,NE,48,2.9,4.9,84,0.00,,,0.00,meteobridge,2014-01-07 11:05:00,
2014-01-07 06:10:00,-5.8,-9.4,30.16,NE,48,4.0,4.9,84,0.00,,,0.00,meteobridge,2014-01-07 11:10:00,
2014-01-07 06:15:00,-6.0,-9.6,30.16,NE,47,2.9,4.9,84,0.00,,,0.00,meteobridge,2014-01-07 11:15:00,
2014-01-07 06:20:00,-6.0,-9.6,30.16,NE,47,2.9,4.0,84,0.00,,,0.00,meteobridge,2014-01-07 11:20:00,
2014-01-07 06:25:00,-6.0,-9.6,30.16,NE,48,4.0,4.9,84,0.00,,,0.00,meteobridge,2014-01-07 11:25:00,
2014-01-07 06:30:00,-5.4,-9.0,30.16,NE,48,4.9,8.9,84,0.00,,,0.00,meteobridge,2014-01-07 11:30:00,
2014-01-07 06:35:00,-5.4,-9.0,30.16,NE,48,2.9,4.0,84,0.00,,,0.00,meteobridge,2014-01-07 11:35:00,
2014-01-07 06:40:00,-5.4,-9.0,30.17,NE,47,2.9,6.0,84,0.00,,,0.00,meteobridge,2014-01-07 11:40:00,
2014-01-07 06:45:00,-5.3,-8.9,30.17,NE,48,2.9,6.0,84,0.00,,,0.00,meteobridge,2014-01-07 11:45:00,
2014-01-07 06:50:00,-5.3,-8.9,30.17,NE,48,6.0,8.9,84,0.00,,,0.00,meteobridge,2014-01-07 11:50:00,
2014-01-07 06:55:00,-5.1,-8.7,30.17,NE,48,8.9,11.0,84,0.00,,,0.00,meteobridge,2014-01-07 11:55:00,
2014-01-07 07:00:00,-5.1,-8.7,30.17,NE,48,6.0,8.9,84,0.00,,,0.00,meteobridge,2014-01-07 12:00:00,
2014-01-07 07:06:00,-4.9,-8.5,30.17,NE,48,4.0,6.0,84,0.00,,,0.00,meteobridge,2014-01-07 12:06:00,
2014-01-07 07:11:00,-4.9,-8.5,30.17,NE,48,4.9,6.9,84,0.00,,,0.00,meteobridge,2014-01-07 12:11:00,
2014-01-07 07:16:00,-4.9,-8.5,30.17,NE,48,6.0,8.9,84,0.00,,,0.00,meteobridge,2014-01-07 12:16:00,
2014-01-07 07:21:00,-5.1,-8.7,30.18,NE,47,4.0,4.0,84,0.00,,,0.00,meteobridge,2014-01-07 12:21:00,
2014-01-07 07:26:00,-5.1,-8.7,30.18,NE,47,6.9,6.9,84,0.00,,,0.00,meteobridge,2014-01-07 12:26:00,
2014-01-07 07:31:00,-5.1,-8.7,30.18,NE,47,2.9,6.9,84,0.00,,,0.00,meteobridge,2014-01-07 12:31:00,
2014-01-07 07:36:00,-4.7,-8.3,30.18,NE,48,2.9,6.0,84,0.00,,,0.00,meteobridge,2014-01-07 12:36:00,
2014-01-07 07:41:00,-4.7,-8.3,30.19,NE,48,8.9,8.9,84,0.00,,,0.00,meteobridge,2014-01-07 12:41:00,
2014-01-07 07:46:00,-4.7,-8.3,30.19,NE,48,4.0,6.9,84,0.00,,,0.00,meteobridge,2014-01-07 12:46:00,
2014-01-07 07:51:00,-4.9,-8.5,30.19,NE,48,4.9,8.9,84,0.00,,,0.00,meteobridge,2014-01-07 12:51:00,
2014-01-07 07:56:00,-4.9,-8.5,30.19,NE,48,4.0,6.0,84,0.00,,,0.00,meteobridge,2014-01-07 12:56:00,
2014-01-07 08:01:00,-4.9,-8.5,30.20,NE,48,4.9,6.9,84,0.00,,,0.00,meteobridge,2014-01-07 13:01:00,
2014-01-07 08:06:00,-4.7,-8.3,30.20,NE,48,2.9,8.9,84,0.00,,,0.00,meteobridge,2014-01-07 13:06:00,
2014-01-07 08:12:00,-4.5,-8.1,30.20,NE,48,4.9,6.9,84,0.00,,,0.00,meteobridge,2014-01-07 13:12:00,
2014-01-07 08:17:00,-4.5,-8.1,30.20,NE,48,2.9,4.0,84,0.00,,,0.00,meteobridge,2014-01-07 13:17:00,
2014-01-07 08:22:00,-4.4,-8.0,30.20,NE,48,4.9,8.9,84,0.00,,,0.00,meteobridge,2014-01-07 13:22:00,
2014-01-07 08:27:00,-4.2,-7.8,30.20,NE,48,6.0,6.9,84,0.00,,,0.00,meteobridge,2014-01-07 13:27:00,
2014-01-07 08:32:00,-4.2,-7.8,30.21,NE,48,6.9,8.9,84,0.00,,,0.00,meteobridge,2014-01-07 13:32:00,
2014-01-07 08:40:00,-3.5,-7.1,30.21,NE,48,4.9,4.9,84,0.00,,,0.00,meteobridge,2014-01-07 13:40:00,
2014-01-07 08:45:00,-3.1,-6.7,30.21,NE,48,4.0,8.9,84,0.00,,,0.00,meteobridge,2014-01-07 13:45:00,
2014-01-07 08:50:00,-2.7,-6.3,30.21,NE,48,6.9,10.1,84,0.00,,,0.00,meteobridge,2014-01-07 13:50:00,
2014-01-07 08:56:00,-2.6,-6.2,30.22,NE,48,6.9,6.9,84,0.00,,,0.00,meteobridge,2014-01-07 13:56:00,
2014-01-07 09:01:00,-2.4,-5.8,30.22,NE,48,8.9,8.9,85,0.00,,,0.00,meteobridge,2014-01-07 14:01:00,
2014-01-07 09:06:00,-1.8,-5.3,30.22,NE,48,6.0,8.9,85,0.00,,,0.00,meteobridge,2014-01-07 14:06:00,
2014-01-07 09:11:00,-1.7,-5.1,30.23,NE,48,6.9,11.0,85,0.00,,,0.00,meteobridge,2014-01-07 14:11:00,
2014-01-07 09:16:00,-1.7,-5.1,30.23,NE,48,6.0,10.1,85,0.00,,,0.00,meteobridge,2014-01-07 14:16:00,
2014-01-07 09:21:00,-1.7,-5.1,30.23,NE,48,8.9,15.0,85,0.00,,,0.00,meteobridge,2014-01-07 14:21:00,
2014-01-07 09:26:00,-1.5,-4.9,30.23,NE,48,6.9,10.1,85,0.00,,,0.00,meteobridge,2014-01-07 14:26:00,
2014-01-07 09:31:00,-1.3,-4.7,30.23,NE,48,6.0,12.1,85,0.00,,,0.00,meteobridge,2014-01-07 14:31:00,
2014-01-07 09:37:00,-0.9,-4.4,30.24,NE,48,2.9,6.0,85,0.00,,,0.00,meteobridge,2014-01-07 14:37:00,
2014-01-07 09:42:00,-0.6,-4.0,30.24,NE,48,4.0,6.9,85,0.00,,,0.00,meteobridge,2014-01-07 14:42:00,
2014-01-07 09:47:00,0.0,-3.5,30.24,NE,48,10.1,11.0,85,0.00,,,0.00,meteobridge,2014-01-07 14:47:00,
2014-01-07 09:52:00,-0.4,-3.8,30.24,NE,48,6.0,12.1,85,0.00,,,0.00,meteobridge,2014-01-07 14:52:00,
2014-01-07 09:57:00,0.0,-3.5,30.24,NE,48,4.9,10.1,85,0.00,,,0.00,meteobridge,2014-01-07 14:57:00,
2014-01-07 10:03:00,0.3,-3.1,30.24,NE,48,4.0,10.1,85,0.00,,,0.00,meteobridge,2014-01-07 15:03:00,
2014-01-07 10:08:00,0.7,-2.7,30.24,NE,48,6.0,11.0,85,0.00,,,0.00,meteobridge,2014-01-07 15:08:00,
2014-01-07 10:13:00,0.9,-2.6,30.24,NE,48,2.0,6.9,85,0.00,,,0.00,meteobridge,2014-01-07 15:13:00,
2014-01-07 10:18:00,0.9,-2.6,30.24,NE,48,6.0,10.1,85,0.00,,,0.00,meteobridge,2014-01-07 15:18:00,
2014-01-07 10:23:00,1.0,-2.4,30.24,NE,48,6.9,10.1,85,0.00,,,0.00,meteobridge,2014-01-07 15:23:00,
2014-01-07 10:28:00,1.2,-2.2,30.23,NE,48,6.0,8.9,85,0.00,,,0.00,meteobridge,2014-01-07 15:28:00,
2014-01-07 10:33:00,1.4,-2.0,30.23,NE,48,8.9,12.1,85,0.00,,,0.00,meteobridge,2014-01-07 15:33:00,
2014-01-07 10:38:00,1.6,-1.8,30.22,NE,48,8.9,12.1,85,0.00,,,0.00,meteobridge,2014-01-07 15:38:00,
2014-01-07 10:43:00,1.6,-1.8,30.23,NE,48,4.9,8.9,85,0.00,,,0.00,meteobridge,2014-01-07 15:43:00,
2014-01-07 10:48:00,1.8,-1.5,30.23,NE,48,6.9,11.0,86,0.00,,,0.00,meteobridge,2014-01-07 15:48:00,
2014-01-07 10:54:00,1.9,-1.5,30.22,NE,48,6.0,12.1,85,0.00,,,0.00,meteobridge,2014-01-07 15:54:00,
2014-01-07 10:59:00,2.3,-1.1,30.21,NE,48,6.0,12.1,85,0.00,,,0.00,meteobridge,2014-01-07 15:59:00,
2014-01-07 11:04:00,2.1,-1.3,30.21,NE,48,6.9,8.9,85,0.00,,,0.00,meteobridge,2014-01-07 16:04:00,
2014-01-07 11:09:00,2.5,-0.8,30.21,NE,48,6.9,6.9,86,0.00,,,0.00,meteobridge,2014-01-07 16:09:00,
2014-01-07 11:14:00,2.8,-0.4,30.22,NE,48,4.0,4.0,86,0.00,,,0.00,meteobridge,2014-01-07 16:14:00,
2014-01-07 11:19:00,3.4,0.1,30.22,NE,48,8.9,8.9,86,0.00,,,0.00,meteobridge,2014-01-07 16:19:00,
2014-01-07 11:24:00,3.4,0.1,30.22,NE,48,4.9,8.9,86,0.00,,,0.00,meteobridge,2014-01-07 16:24:00,
2014-01-07 11:29:00,3.4,0.1,30.22,NE,48,4.0,8.9,86,0.00,,,0.00,meteobridge,2014-01-07 16:29:00,
2014-01-07 11:34:00,3.7,0.5,30.22,NE,48,6.9,10.1,86,0.00,,,0.00,meteobridge,2014-01-07 16:34:00,
2014-01-07 11:39:00,3.9,0.7,30.23,NE,48,2.9,6.9,86,0.00,,,0.00,meteobridge,2014-01-07 16:39:00,
2014-01-07 11:44:00,4.5,1.2,30.22,NE,48,2.9,6.9,86,0.00,,,0.00,meteobridge,2014-01-07 16:44:00,
2014-01-07 11:49:00,4.5,1.2,30.22,NE,48,4.9,8.9,86,0.00,,,0.00,meteobridge,2014-01-07 16:49:00,
2014-01-07 11:55:00,4.6,1.4,30.21,NE,48,4.9,6.9,86,0.00,,,0.00,meteobridge,2014-01-07 16:55:00,
2014-01-07 12:00:00,4.8,1.8,30.21,NE,48,4.0,6.9,87,0.00,,,0.00,meteobridge,2014-01-07 17:00:00,
2014-01-07 12:05:00,5.2,1.9,30.20,NE,48,6.9,10.1,86,0.00,,,0.00,meteobridge,2014-01-07 17:05:00,
2014-01-07 12:10:00,5.2,1.9,30.20,NE,48,6.0,6.9,86,0.00,,,0.00,meteobridge,2014-01-07 17:10:00,
2014-01-07 12:15:00,5.2,2.1,30.20,NE,48,4.0,10.1,87,0.00,,,0.00,meteobridge,2014-01-07 17:15:00,
2014-01-07 12:20:00,5.4,2.3,30.19,NE,48,2.9,6.9,87,0.00,,,0.00,meteobridge,2014-01-07 17:20:00,
2014-01-07 12:25:00,5.2,1.9,30.19,NE,48,8.9,10.1,86,0.00,,,0.00,meteobridge,2014-01-07 17:25:00,
2014-01-07 12:30:00,4.6,1.4,30.19,NE,48,8.9,11.0,86,0.00,,,0.00,meteobridge,2014-01-07 17:30:00,
2014-01-07 12:35:00,4.5,1.2,30.19,NE,48,8.9,8.9,86,0.00,,,0.00,meteobridge,2014-01-07 17:35:00,
2014-01-07 12:40:00,4.8,1.8,30.18,NE,48,6.0,6.0,87,0.00,,,0.00,meteobridge,2014-01-07 17:40:00,
2014-01-07 12:45:00,5.2,1.9,30.17,NE,48,2.9,4.9,86,0.00,,,0.00,meteobridge,2014-01-07 17:45:00,
2014-01-07 12:50:00,5.4,2.1,30.17,NE,48,6.9,8.9,86,0.00,,,0.00,meteobridge,2014-01-07 17:50:00,
2014-01-07 12:55:00,5.4,2.3,30.17,NE,48,6.0,11.0,87,0.00,,,0.00,meteobridge,2014-01-07 17:55:00,
2014-01-07 13:00:00,5.4,2.3,30.17,NE,48,8.9,8.9,87,0.00,,,0.00,meteobridge,2014-01-07 18:00:00,
2014-01-07 13:05:00,5.5,2.5,30.17,NE,48,10.1,11.0,87,0.00,,,0.00,meteobridge,2014-01-07 18:05:00,
2014-01-07 13:11:00,5.5,2.3,30.17,NE,48,2.9,6.9,86,0.00,,,0.00,meteobridge,2014-01-07 18:11:00,
2014-01-07 13:16:00,5.9,2.8,30.17,NE,48,8.9,10.1,87,0.00,,,0.00,meteobridge,2014-01-07 18:16:00,
2014-01-07 13:21:00,5.7,2.5,30.16,NE,48,6.9,11.0,86,0.00,,,0.00,meteobridge,2014-01-07 18:21:00,
2014-01-07 13:26:00,5.9,2.8,30.17,NE,48,8.9,10.1,87,0.00,,,0.00,meteobridge,2014-01-07 18:26:00,
2014-01-07 13:31:00,6.3,3.2,30.17,NE,48,4.9,6.0,87,0.00,,,0.00,meteobridge,2014-01-07 18:31:00,
2014-01-07 13:36:00,6.6,3.6,30.17,NE,48,8.9,8.9,87,0.00,,,0.00,meteobridge,2014-01-07 18:36:00,
2014-01-07 13:41:00,6.4,3.4,30.16,NE,48,6.0,8.9,87,0.00,,,0.00,meteobridge,2014-01-07 18:41:00,
2014-01-07 13:46:00,6.6,3.6,30.16,NE,48,4.9,8.9,87,0.00,,,0.00,meteobridge,2014-01-07 18:46:00,
2014-01-07 13:51:00,6.6,3.6,30.16,NE,48,6.9,10.1,87,0.00,,,0.00,meteobridge,2014-01-07 18:51:00,
2014-01-07 13:56:00,6.6,3.6,30.16,NE,48,6.9,10.1,87,0.00,,,0.00,meteobridge,2014-01-07 18:56:00,
2014-01-07 14:01:00,7.0,3.9,30.16,NE,48,4.9,8.9,87,0.00,,,0.00,meteobridge,2014-01-07 19:01:00,
2014-01-07 14:06:00,7.3,4.3,30.16,NE,48,8.9,8.9,87,0.00,,,0.00,meteobridge,2014-01-07 19:06:00,
2014-01-07 14:11:00,7.3,4.3,30.16,NE,48,2.0,4.0,87,0.00,,,0.00,meteobridge,2014-01-07 19:11:00,
2014-01-07 14:17:00,7.7,4.6,30.15,NE,48,2.0,4.9,87,0.00,,,0.00,meteobridge,2014-01-07 19:17:00,
2014-01-07 14:22:00,7.9,4.8,30.15,NE,48,2.9,6.0,87,0.00,,,0.00,meteobridge,2014-01-07 19:22:00,
2014-01-07 14:27:00,8.2,5.2,30.15,NE,48,6.0,6.0,87,0.00,,,0.00,meteobridge,2014-01-07 19:27:00,
2014-01-07 14:32:00,8.2,5.2,30.14,NE,48,6.0,6.9,87,0.00,,,0.00,meteobridge,2014-01-07 19:32:00,
2014-01-07 14:37:00,7.9,4.8,30.14,NE,48,8.9,11.0,87,0.00,,,0.00,meteobridge,2014-01-07 19:37:00,
2014-01-07 14:42:00,7.9,4.8,30.15,NE,48,4.0,8.9,87,0.00,,,0.00,meteobridge,2014-01-07 19:42:00,
2014-01-07 14:47:00,7.9,4.8,30.15,NE,48,4.0,6.9,87,0.00,,,0.00,meteobridge,2014-01-07 19:47:00,
2014-01-07 14:52:00,8.1,5.0,30.15,NE,48,6.0,6.0,87,0.00,,,0.00,meteobridge,2014-01-07 19:52:00,
2014-01-07 14:58:00,8.1,5.0,30.16,NE,48,6.0,10.1,87,0.00,,,0.00,meteobridge,2014-01-07 19:58:00,
2014-01-07 15:03:00,7.9,4.8,30.15,NE,48,6.0,8.9,87,0.00,,,0.00,meteobridge,2014-01-07 20:03:00,
2014-01-07 15:08:00,8.1,5.0,30.15,NE,48,4.9,10.1,87,0.00,,,0.00,meteobridge,2014-01-07 20:08:00,
2014-01-07 15:13:00,8.1,5.2,30.15,NE,48,4.9,6.9,88,0.00,,,0.00,meteobridge,2014-01-07 20:13:00,
2014-01-07 15:18:00,8.2,5.4,30.15,NE,48,10.1,10.1,88,0.00,,,0.00,meteobridge,2014-01-07 20:18:00,
2014-01-07 15:23:00,8.4,5.5,30.16,NE,48,6.0,6.0,88,0.00,,,0.00,meteobridge,2014-01-07 20:23:00,
2014-01-07 15:28:00,8.6,5.7,30.16,NE,48,4.0,8.9,88,0.00,,,0.00,meteobridge,2014-01-07 20:28:00,
2014-01-07 15:34:00,8.4,5.5,30.16,NE,48,4.9,6.9,88,0.00,,,0.00,meteobridge,2014-01-07 20:34:00,
2014-01-07 15:39:00,8.2,5.4,30.16,NE,48,4.0,4.9,88,0.00,,,0.00,meteobridge,2014-01-07 20:39:00,
2014-01-07 15:44:00,8.4,5.5,30.16,NE,48,4.9,6.9,88,0.00,,,0.00,meteobridge,2014-01-07 20:44:00,
2014-01-07 15:49:00,8.4,5.5,30.15,NE,48,4.0,6.0,88,0.00,,,0.00,meteobridge,2014-01-07 20:49:00,
2014-01-07 15:54:00,8.8,5.9,30.15,NE,48,2.9,2.9,88,0.00,,,0.00,meteobridge,2014-01-07 20:54:00,
2014-01-07 15:59:00,8.8,5.9,30.15,NE,48,4.9,6.0,88,0.00,,,0.00,meteobridge,2014-01-07 20:59:00,
2014-01-07 16:04:00,8.8,5.9,30.15,NE,48,2.0,4.0,88,0.00,,,0.00,meteobridge,2014-01-07 21:04:00,
2014-01-07 16:09:00,8.8,5.9,30.15,NE,48,4.9,6.0,88,0.00,,,0.00,meteobridge,2014-01-07 21:09:00,
2014-01-07 16:14:00,8.6,5.7,30.15,NE,48,0.9,4.9,88,0.00,,,0.00,meteobridge,2014-01-07 21:14:00,
2014-01-07 16:19:00,8.8,5.9,30.15,NE,48,4.0,4.0,88,0.00,,,0.00,meteobridge,2014-01-07 21:19:00,
2014-01-07 16:24:00,8.8,5.9,30.15,NE,48,2.9,4.9,88,0.00,,,0.00,meteobridge,2014-01-07 21:24:00,
2014-01-07 16:30:00,9.0,6.1,30.15,NE,48,2.9,6.0,88,0.00,,,0.00,meteobridge,2014-01-07 21:30:00,
2014-01-07 16:35:00,8.8,5.9,30.16,NE,48,2.0,6.0,88,0.00,,,0.00,meteobridge,2014-01-07 21:35:00,
2014-01-07 16:40:00,9.0,6.1,30.15,NE,48,4.0,6.9,88,0.00,,,0.00,meteobridge,2014-01-07 21:40:00,
2014-01-07 16:45:00,8.8,5.9,30.14,NE,48,4.0,6.0,88,0.00,,,0.00,meteobridge,2014-01-07 21:45:00,
2014-01-07 16:50:00,8.4,5.5,30.14,NE,48,2.9,6.9,88,0.00,,,0.00,meteobridge,2014-01-07 21:50:00,
2014-01-07 16:55:00,8.4,5.5,30.13,NE,48,2.9,6.0,88,0.00,,,0.00,meteobridge,2014-01-07 21:55:00,
2014-01-07 17:00:00,8.6,5.7,30.13,NE,48,4.0,10.1,88,0.00,,,0.00,meteobridge,2014-01-07 22:00:00,
2014-01-07 17:05:00,8.6,5.7,30.14,NE,48,2.0,4.0,88,0.00,,,0.00,meteobridge,2014-01-07 22:05:00,
2014-01-07 17:10:00,8.8,5.9,30.14,NE,48,2.9,6.0,88,0.00,,,0.00,meteobridge,2014-01-07 22:10:00,
2014-01-07 17:15:00,8.8,5.9,30.13,NE,48,2.0,4.0,88,0.00,,,0.00,meteobridge,2014-01-07 22:15:00,
2014-01-07 17:20:00,9.0,6.1,30.14,NE,48,2.9,2.9,88,0.00,,,0.00,meteobridge,2014-01-07 22:20:00,
2014-01-07 17:25:00,9.0,6.1,30.13,NE,48,2.0,4.9,88,0.00,,,0.00,meteobridge,2014-01-07 22:25:00,
2014-01-07 17:31:00,9.0,6.1,30.13,NE,48,2.0,2.9,88,0.00,,,0.00,meteobridge,2014-01-07 22:31:00,
2014-01-07 17:36:00,9.0,6.1,30.13,NE,48,2.9,2.9,88,0.00,,,0.00,meteobridge,2014-01-07 22:36:00,
2014-01-07 17:41:00,9.0,6.1,30.13,NE,48,2.9,4.0,88,0.00,,,0.00,meteobridge,2014-01-07 22:41:00,
2014-01-07 17:46:00,9.0,6.1,30.13,NE,48,2.0,2.9,88,0.00,,,0.00,meteobridge,2014-01-07 22:46:00,
2014-01-07 17:51:00,9.0,6.1,30.13,NE,48,2.0,2.0,88,0.00,,,0.00,meteobridge,2014-01-07 22:51:00,
2014-01-07 17:56:00,9.0,6.1,30.13,NE,48,2.0,2.0,88,0.00,,,0.00,meteobridge,2014-01-07 22:56:00,
2014-01-07 18:01:00,9.0,6.1,30.13,NE,48,0.9,2.0,88,0.00,,,0.00,meteobridge,2014-01-07 23:01:00,
2014-01-07 18:06:00,9.0,6.1,30.13,NE,48,0.0,0.9,88,0.00,,,0.00,meteobridge,2014-01-07 23:06:00,
2014-01-07 18:12:00,9.0,6.1,30.13,NE,48,0.9,2.0,88,0.00,,,0.00,meteobridge,2014-01-07 23:12:00,
2014-01-07 18:17:00,9.1,6.3,30.13,NE,48,0.9,2.0,88,0.00,,,0.00,meteobridge,2014-01-07 23:17:00,
2014-01-07 18:22:00,9.1,6.3,30.13,NE,48,2.0,2.9,88,0.00,,,0.00,meteobridge,2014-01-07 23:22:00,
2014-01-07 18:27:00,9.1,6.3,30.13,NE,48,2.0,2.0,88,0.00,,,0.00,meteobridge,2014-01-07 23:27:00,
2014-01-07 18:32:00,9.1,6.3,30.13,NE,48,0.0,2.0,88,0.00,,,0.00,meteobridge,2014-01-07 23:32:00,
2014-01-07 18:37:00,9.3,6.4,30.13,NE,48,0.9,2.9,88,0.00,,,0.00,meteobridge,2014-01-07 23:37:00,
2014-01-07 18:42:00,9.3,6.4,30.12,NE,48,2.0,2.9,88,0.00,,,0.00,meteobridge,2014-01-07 23:42:00,
2014-01-07 18:47:00,9.5,6.6,30.13,NE,48,0.9,2.9,88,0.00,,,0.00,meteobridge,2014-01-07 23:47:00,
2014-01-07 18:52:00,9.7,6.8,30.13,NE,48,0.0,2.0,88,0.00,,,0.00,meteobridge,2014-01-07 23:52:00,
2014-01-07 18:57:00,9.9,7.0,30.13,NE,48,0.9,2.9,88,0.00,,,0.00,meteobridge,2014-01-07 23:57:00,
2014-01-07 19:02:00,9.9,7.0,30.13,NE,48,2.0,2.9,88,0.00,,,0.00,meteobridge,2014-01-08 00:02:00,
2014-01-07 19:08:00,9.9,7.0,30.14,NE,48,0.9,2.0,88,0.00,,,0.00,meteobridge,2014-01-08 00:08:00,
2014-01-07 19:13:00,10.0,7.2,30.14,NE,48,2.0,2.9,88,0.00,,,0.00,meteobridge,2014-01-08 00:13:00,
2014-01-07 19:18:00,10.0,7.2,30.14,NE,48,2.0,2.9,88,0.00,,,0.00,meteobridge,2014-01-08 00:18:00,
2014-01-07 19:23:00,10.0,7.2,30.14,NE,48,0.9,2.9,88,0.00,,,0.00,meteobridge,2014-01-08 00:23:00,
2014-01-07 19:28:00,10.0,7.2,30.14,NE,48,2.0,4.0,88,0.00,,,0.00,meteobridge,2014-01-08 00:28:00,
2014-01-07 19:33:00,10.2,7.3,30.14,NE,48,2.0,2.9,88,0.00,,,0.00,meteobridge,2014-01-08 00:33:00,
2014-01-07 19:38:00,10.2,7.3,30.14,NE,48,2.9,2.9,88,0.00,,,0.00,meteobridge,2014-01-08 00:38:00,
2014-01-07 19:44:00,10.4,7.5,30.14,NE,48,0.9,2.9,88,0.00,,,0.00,meteobridge,2014-01-08 00:44:00,
2014-01-07 19:49:00,10.6,7.7,30.14,NE,48,0.9,4.0,88,0.00,,,0.00,meteobridge,2014-01-08 00:49:00,
2014-01-07 19:54:00,10.6,7.7,30.14,NE,48,0.9,2.9,88,0.00,,,0.00,meteobridge,2014-01-08 00:54:00,
2014-01-07 19:59:00,10.8,7.9,30.14,NE,48,2.0,2.9,88,0.00,,,0.00,meteobridge,2014-01-08 00:59:00,
2014-01-07 20:04:00,10.8,7.9,30.14,NE,48,0.9,2.9,88,0.00,,,0.00,meteobridge,2014-01-08 01:04:00,
2014-01-07 20:10:00,10.8,7.9,30.14,NE,48,0.9,4.9,88,0.00,,,0.00,meteobridge,2014-01-08 01:10:00,
2014-01-07 20:15:00,10.8,7.9,30.14,NE,48,2.9,4.0,88,0.00,,,0.00,meteobridge,2014-01-08 01:15:00,
2014-01-07 20:20:00,10.9,8.1,30.14,NE,48,2.0,2.9,88,0.00,,,0.00,meteobridge,2014-01-08 01:20:00,
2014-01-07 20:25:00,10.9,8.1,30.14,NE,48,2.9,4.0,88,0.00,,,0.00,meteobridge,2014-01-08 01:25:00,
2014-01-07 20:30:00,11.1,8.2,30.14,NE,48,0.9,2.0,88,0.00,,,0.00,meteobridge,2014-01-08 01:30:00,
2014-01-07 20:35:00,11.1,8.2,30.14,NE,48,0.9,2.0,88,0.00,,,0.00,meteobridge,2014-01-08 01:35:00,
2014-01-07 20:40:00,11.1,8.2,30.14,NE,48,0.9,4.0,88,0.00,,,0.00,meteobridge,2014-01-08 01:40:00,
2014-01-07 20:45:00,11.1,8.2,30.14,NE,48,2.9,4.0,88,0.00,,,0.00,meteobridge,2014-01-08 01:45:00,
2014-01-07 20:50:00,11.1,8.2,30.14,NE,48,2.9,2.9,88,0.00,,,0.00,meteobridge,2014-01-08 01:50:00,
2014-01-07 20:55:00,11.1,8.2,30.14,NE,48,0.9,2.9,88,0.00,,,0.00,meteobridge,2014-01-08 01:55:00,
2014-01-07 21:00:00,11.3,8.4,30.14,NE,48,2.0,4.0,88,0.00,,,0.00,meteobridge,2014-01-08 02:00:00,
2014-01-07 21:06:00,11.3,8.4,30.15,NE,48,2.0,2.0,88,0.00,,,0.00,meteobridge,2014-01-08 02:06:00,
2014-01-07 21:11:00,11.3,8.4,30.15,NE,48,2.0,4.9,88,0.00,,,0.00,meteobridge,2014-01-08 02:11:00,
2014-01-07 21:16:00,11.5,8.6,30.15,NE,48,0.9,4.0,88,0.00,,,0.00,meteobridge,2014-01-08 02:16:00,
2014-01-07 21:21:00,11.5,8.6,30.15,NE,48,0.9,4.0,88,0.00,,,0.00,meteobridge,2014-01-08 02:21:00,
2014-01-07 21:26:00,11.5,8.6,30.15,NE,48,2.0,2.9,88,0.00,,,0.00,meteobridge,2014-01-08 02:26:00,
2014-01-07 21:31:00,11.5,8.6,30.16,NE,48,2.0,4.0,88,0.00,,,0.00,meteobridge,2014-01-08 02:31:00,
2014-01-07 21:36:00,11.7,8.8,30.16,NE,48,4.0,4.0,88,0.00,,,0.00,meteobridge,2014-01-08 02:36:00,
2014-01-07 21:41:00,11.7,9.1,30.16,NE,48,0.9,2.9,89,0.00,,,0.00,meteobridge,2014-01-08 02:41:00,
2014-01-07 21:47:00,11.7,8.8,30.16,NE,48,2.0,2.9,88,0.00,,,0.00,meteobridge,2014-01-08 02:47:00,
2014-01-07 21:52:00,11.7,8.8,30.16,NE,48,0.9,2.0,88,0.00,,,0.00,meteobridge,2014-01-08 02:52:00,
2014-01-07 21:57:00,11.8,9.0,30.16,NE,48,0.0,2.9,88,0.00,,,0.00,meteobridge,2014-01-08 02:57:00,
2014-01-07 22:02:00,11.8,9.0,30.16,NE,48,0.9,2.9,88,0.00,,,0.00,meteobridge,2014-01-08 03:02:00,
2014-01-07 22:07:00,11.8,9.0,30.16,NE,48,2.0,2.9,88,0.00,,,0.00,meteobridge,2014-01-08 03:07:00,
2014-01-07 22:12:00,11.7,8.8,30.16,NE,48,2.0,2.0,88,0.00,,,0.00,meteobridge,2014-01-08 03:12:00,
2014-01-07 22:17:00,11.7,8.8,30.15,NE,48,2.9,2.9,88,0.00,,,0.00,meteobridge,2014-01-08 03:17:00,
2014-01-07 22:23:00,11.7,8.8,30.15,NE,48,2.0,2.9,88,0.00,,,0.00,meteobridge,2014-01-08 03:23:00,
2014-01-07 22:28:00,11.7,8.8,30.15,NE,48,0.9,2.0,88,0.00,,,0.00,meteobridge,2014-01-08 03:28:00,
2014-01-07 22:33:00,11.5,8.6,30.15,NE,48,0.9,2.0,88,0.00,,,0.00,meteobridge,2014-01-08 03:33:00,
2014-01-07 22:38:00,11.5,8.6,30.15,NE,48,0.9,2.9,88,0.00,,,0.00,meteobridge,2014-01-08 03:38:00,
2014-01-07 22:43:00,11.5,8.6,30.15,NE,48,2.0,2.0,88,0.00,,,0.00,meteobridge,2014-01-08 03:43:00,
2014-01-07 22:48:00,11.7,8.8,30.15,NE,48,0.9,2.9,88,0.00,,,0.00,meteobridge,2014-01-08 03:48:00,
2014-01-07 22:53:00,11.7,9.1,30.16,NE,48,0.9,2.9,89,0.00,,,0.00,meteobridge,2014-01-08 03:53:00,
2014-01-07 22:58:00,11.8,9.1,30.15,NE,48,0.9,2.0,89,0.00,,,0.00,meteobridge,2014-01-08 03:58:00,
2014-01-07 23:03:00,12.0,9.3,30.15,NE,48,0.9,2.0,89,0.00,,,0.00,meteobridge,2014-01-08 04:03:00,
2014-01-07 23:09:00,12.0,9.3,30.15,NE,48,0.9,2.9,89,0.00,,,0.00,meteobridge,2014-01-08 04:09:00,
2014-01-07 23:14:00,11.8,9.1,30.15,NE,48,2.0,2.9,89,0.00,,,0.00,meteobridge,2014-01-08 04:14:00,
2014-01-07 23:19:00,11.8,9.0,30.14,NE,48,2.0,2.0,88,0.00,,,0.00,meteobridge,2014-01-08 04:19:00,
2014-01-07 23:24:00,11.8,9.1,30.14,NE,48,2.0,2.0,89,0.00,,,0.00,meteobridge,2014-01-08 04:24:00,
2014-01-07 23:29:00,11.8,9.1,30.14,NE,48,2.9,2.9,89,0.00,,,0.00,meteobridge,2014-01-08 04:29:00,
2014-01-07 23:34:00,11.8,9.1,30.14,NE,47,0.9,2.9,89,0.00,,,0.00,meteobridge,2014-01-08 04:34:00,
2014-01-07 23:40:00,11.7,8.8,30.14,NE,48,0.9,2.0,88,0.00,,,0.00,meteobridge,2014-01-08 04:40:00,
2014-01-07 23:45:00,11.7,9.1,30.14,NE,47,0.9,2.9,89,0.00,,,0.00,meteobridge,2014-01-08 04:45:00,
2014-01-07 23:50:00,11.7,9.1,30.14,NE,48,0.9,2.0,89,0.00,,,0.00,meteobridge,2014-01-08 04:50:00,
2014-01-07 23:55:00,11.5,8.6,30.14,NE,48,0.9,2.0,88,0.00,,,0.00,meteobridge,2014-01-08 04:55:00,